[[{"header":{"parameterUnit":"m.s-1","parameterCategory":1,"la1":30.2991,"la2":30.254,"lo1":-89.0895,"lo2":-89.0444,"dy":0.0017,"dx":0.0017,"nx":28,"ny":28,"refTime":"2024-10-12T03:00:00:Z","depth":0,"parameterNumber":2,"parameterNumberName":"U-component_of_WINDS"},"data":[0,0,0,0,0,0,0,0,0,0,0,0,0,0,0,0,0,0,0,0,0,0,0,0,0,0,0,0,0,0,0,0,0,0,0,0,0,0,0,0,0,0,0,0,0,0,0,0,0,0,0,0,0,0,0,0,0,0,-0.5541,-0.5542,0,-0.5631,-0.5632,-0.5633,-0.5687,-0.5687,-0.5688,-0.5688,-0.5782,-0.5784,-0.5786,0,0,0,0,0,0,0,0,0,0,0,0,0,-0.5418,-0.542,-0.5541,-0.5542,-0.5543,-0.5631,-0.5632,-0.5634,-0.5687,-0.5687,-0.5688,-0.5688,-0.5781,-0.5784,-0.5787,0,0,0,0,0,0,0,0,0,0,0,0,0,-0.5486,-0.5421,-0.5541,-0.558,-0.5585,-0.5631,-0.5632,-0.5634,-0.5687,-0.5687,-0.5688,-0.5688,-0.578,-0.5784,-0.5787,-0.5801,0,0,-0.5798,-0.5799,0,0,0,0,0,0,0,0,-0.5483,-0.5491,-0.5574,-0.5578,-0.5583,-0.5648,-0.5624,-0.569,-0.5687,-0.5648,-0.5688,-0.5688,-0.5737,-0.5744,-0.5761,-0.5806,-0.581,-0.5798,-0.58,-0.5801,-0.5802,0,0,0,0,0,0,0,-0.5478,-0.5487,-0.5577,-0.5575,-0.558,-0.5595,-0.5605,-0.5637,-0.569,-0.5652,-0.5656,-0.5666,-0.574,-0.5757,-0.5763,-0.5811,-0.5798,-0.5801,-0.5803,-0.5804,-0.5875,-0.5874,0,0,0,0,0,0,-0.5466,-0.5483,-0.5574,-0.558,-0.5533,-0.5597,-0.5608,-0.5627,-0.569,-0.5699,-0.5665,-0.5668,-0.5751,-0.5759,-0.5767,-0.5789,-0.5801,-0.5805,-0.5807,-0.5875,-0.5874,-0.5874,0,0,0,0,0,0,-0.5464,-0.5474,-0.557,-0.5532,-0.5546,-0.5599,-0.5619,-0.5629,-0.5646,-0.57,-0.571,-0.5673,-0.5752,-0.5762,-0.5793,-0.5793,-0.5806,-0.5809,-0.5875,-0.5875,-0.5874,-0.5831,0,0,0,0,0,0,-0.546,-0.5473,-0.5477,-0.5532,-0.5548,-0.5593,-0.5619,-0.563,-0.5651,-0.5655,-0.5709,-0.5719,-0.5753,-0.5787,-0.5796,-0.5798,-0.5812,-0.5875,-0.5875,-0.5874,-0.5833,-0.583,-0.5827,0,0,0,0,0,-0.5455,-0.5462,-0.5477,-0.5488,-0.5555,-0.5593,-0.5602,-0.5641,-0.5651,-0.5657,-0.5692,-0.5717,-0.5791,-0.579,-0.58,-0.5803,-0.5875,-0.5875,-0.5874,-0.5834,-0.583,-0.5827,0,0,0,0,0,0,-0.5406,-0.547,-0.5488,-0.5512,-0.5547,-0.5602,-0.5611,-0.5635,-0.5668,-0.567,-0.5717,-0.5729,-0.5756,-0.5783,-0.578,-0.5821,-0.5836,-0.5838,-0.5802,-0.5799,-0.5796,-0.5789,-0.5815,0,0,0,0,0,-0.5398,-0.5423,-0.5478,-0.5494,-0.551,-0.5557,-0.5576,-0.5602,-0.5641,-0.5656,-0.5693,-0.573,-0.5762,-0.5782,-0.5814,-0.5837,-0.5851,-0.5845,-0.5841,-0.5839,-0.5839,-0.5856,-0.5854,-0.5873,-0.5873,-0.5873,0,0,-0.5381,-0.5419,-0.5432,-0.5485,-0.5515,-0.5541,-0.557,-0.5596,-0.5616,-0.566,-0.5691,-0.572,-0.5765,-0.5792,-0.5806,-0.5815,-0.5837,-0.5838,-0.5835,-0.5838,-0.5855,-0.5853,-0.5852,-0.5873,-0.5873,-0.5873,0,0,-0.5365,-0.5396,-0.5413,-0.5443,-0.5488,-0.552,-0.5524,-0.5577,-0.5597,-0.563,-0.5664,-0.5689,-0.5743,-0.5774,-0.5796,-0.5794,-0.5818,-0.5803,-0.5786,-0.5802,-0.58,-0.5799,-0.5799,-0.5799,-0.5804,-0.5803,-0.5803,0,-0.5339,-0.5379,-0.5419,-0.5444,-0.5467,-0.5508,-0.5527,-0.5554,-0.5608,-0.5623,-0.5633,-0.5702,-0.5735,-0.5771,-0.577,-0.5787,-0.5795,-0.5797,-0.5797,-0.5796,-0.5796,-0.5797,-0.5797,-0.5801,-0.5802,-0.5802,-0.5802,0,-0.5345,-0.5373,-0.5382,-0.5432,-0.5456,-0.5478,-0.5523,-0.5543,-0.5568,-0.5599,-0.5632,-0.5673,-0.5715,-0.5726,-0.5751,-0.5766,-0.5771,-0.5788,-0.5804,-0.5791,-0.5793,-0.5794,-0.5798,-0.5799,-0.58,-0.58,0,0,-0.5299,-0.5373,-0.5376,-0.54,-0.5454,-0.5477,-0.5501,-0.5542,-0.5558,-0.5595,-0.5617,-0.5662,-0.5679,-0.5705,-0.5734,-0.5747,-0.5744,-0.5763,-0.5765,-0.5759,-0.5766,-0.5753,-0.5752,-0.5761,-0.5761,-0.5761,-0.5762,0,-0.5291,-0.5336,-0.5374,-0.5406,-0.5432,-0.5473,-0.5495,-0.5531,-0.5561,-0.5589,-0.5623,-0.5654,-0.5674,-0.569,-0.5705,-0.5741,-0.5746,-0.5742,-0.5784,-0.5785,-0.5771,-0.5753,-0.5739,-0.5738,-0.5763,-0.5763,-0.5763,0,-0.5288,-0.5322,-0.5356,-0.5409,-0.5422,-0.544,-0.5482,-0.5507,-0.555,-0.5571,-0.5601,-0.5631,-0.5661,-0.5674,-0.5716,-0.5712,-0.5732,-0.5753,-0.5754,-0.5759,-0.5773,-0.5759,-0.5738,-0.5738,-0.5765,-0.5765,-0.5764,0,-0.5252,-0.5307,-0.5335,-0.5354,-0.5416,-0.5429,-0.5455,-0.5498,-0.5521,-0.5558,-0.5573,-0.5613,-0.5635,-0.5666,-0.5707,-0.5712,-0.5745,-0.5762,-0.5765,-0.5764,-0.577,-0.5769,-0.5752,-0.5781,-0.5781,-0.5781,-0.5781,0,-0.5239,-0.5259,-0.532,-0.5337,-0.5361,-0.5405,-0.5428,-0.5458,-0.5496,-0.5521,-0.5559,-0.5582,-0.5634,-0.5664,-0.5696,-0.5727,-0.5736,-0.5755,-0.5764,-0.5752,-0.575,-0.5766,-0.5767,-0.5781,-0.5781,-0.5781,-0.5781,0,-0.5203,-0.5245,-0.5278,-0.5334,-0.5349,-0.5364,-0.5413,-0.5432,-0.5465,-0.5496,-0.5506,-0.5558,-0.5595,-0.5639,-0.569,-0.5712,-0.574,-0.5753,-0.5726,-0.5731,-0.5732,-0.5731,-0.5726,-0.5728,-0.5754,-0.5753,-0.5753,0,-0.5193,-0.5208,-0.5267,-0.5286,-0.5311,-0.5342,-0.5365,-0.541,-0.5433,-0.5484,-0.5498,-0.5537,-0.5572,-0.5629,-0.5672,-0.5712,-0.5726,-0.5722,-0.5732,-0.5721,-0.5727,-0.5726,-0.5729,-0.5719,-0.5718,-0.5718,-0.5717,0,-0.517,-0.519,-0.5222,-0.5262,-0.5289,-0.5322,-0.5357,-0.5371,-0.5424,-0.5448,-0.5486,-0.5513,-0.5566,-0.5605,-0.5651,-0.568,-0.5708,-0.5714,-0.5717,-0.5705,-0.5689,-0.5699,-0.5718,-0.5713,-0.5714,-0.5714,-0.5714,-0.5714,-0.5147,-0.5163,-0.5207,-0.5242,-0.5274,-0.5306,-0.5327,-0.5363,-0.5395,-0.5441,-0.5467,-0.5504,-0.5549,-0.5613,-0.5642,-0.5673,-0.5683,-0.5686,-0.5688,-0.5688,-0.5685,-0.5684,-0.5681,-0.5682,-0.5682,-0.5682,-0.5682,0,-0.5127,-0.5157,-0.5189,-0.5237,-0.5265,-0.5289,-0.5329,-0.5352,-0.5384,-0.5423,-0.5456,-0.5501,-0.554,-0.5587,-0.5629,-0.5646,-0.566,-0.5655,-0.5655,-0.5661,-0.5674,-0.5667,-0.5643,-0.5643,-0.5643,-0.5643,-0.5643,-0.5643,-0.512,-0.5149,-0.5175,-0.5222,-0.5253,-0.529,-0.5311,-0.5342,-0.5373,-0.5421,-0.5454,-0.5484,-0.5527,-0.5573,-0.561,-0.5623,-0.5638,-0.563,-0.5646,-0.5657,-0.566,-0.5663,-0.5658,-0.5632,-0.5632,-0.5632,-0.5632,-0.5632]},{"header":{"parameterUnit":"m.s-1","parameterCategory":1,"la1":30.2991,"la2":30.254,"lo1":-89.0895,"lo2":-89.0444,"dy":0.0017,"dx":0.0017,"nx":28,"ny":28,"refTime":"2024-10-12T03:00:00:Z","depth":0,"parameterNumber":3,"parameterNumberName":"V-component_of_WINDS"},"data":[0,0,0,0,0,0,0,0,0,0,0,0,0,0,0,0,0,0,0,0,0,0,0,0,0,0,0,0,0,0,0,0,0,0,0,0,0,0,0,0,0,0,0,0,0,0,0,0,0,0,0,0,0,0,0,0,0,0,-1.0285,-1.0286,0,-1.033,-1.033,-1.0331,-1.0363,-1.0363,-1.0363,-1.0363,-1.0409,-1.041,-1.0411,0,0,0,0,0,0,0,0,0,0,0,0,0,-1.023,-1.0231,-1.0285,-1.0286,-1.0286,-1.0329,-1.033,-1.0331,-1.0363,-1.0363,-1.0363,-1.0364,-1.0409,-1.041,-1.0411,0,0,0,0,0,0,0,0,0,0,0,0,0,-1.0262,-1.0231,-1.0285,-1.0307,-1.031,-1.0329,-1.033,-1.0331,-1.0363,-1.0363,-1.0363,-1.0364,-1.0409,-1.041,-1.0411,-1.0412,0,0,-1.0416,-1.0417,0,0,0,0,0,0,0,0,-1.026,-1.0264,-1.0304,-1.0306,-1.0309,-1.0341,-1.0327,-1.0358,-1.0362,-1.0343,-1.0363,-1.0364,-1.0386,-1.039,-1.0397,-1.0415,-1.0417,-1.0416,-1.0417,-1.0418,-1.0418,0,0,0,0,0,0,0,-1.0258,-1.0262,-1.0303,-1.0304,-1.0307,-1.0316,-1.0321,-1.0333,-1.0362,-1.0344,-1.0347,-1.0352,-1.0388,-1.0396,-1.0398,-1.0417,-1.0416,-1.0417,-1.0418,-1.0419,-1.0439,-1.0439,0,0,0,0,0,0,-1.0252,-1.026,-1.0301,-1.0304,-1.0285,-1.0316,-1.0322,-1.033,-1.0362,-1.0367,-1.0351,-1.0353,-1.0393,-1.0397,-1.04,-1.0404,-1.0418,-1.0419,-1.042,-1.0439,-1.0439,-1.0439,0,0,0,0,0,0,-1.0251,-1.0255,-1.03,-1.0283,-1.0289,-1.0317,-1.0326,-1.0331,-1.0339,-1.0367,-1.0372,-1.0354,-1.0393,-1.0398,-1.0409,-1.0406,-1.042,-1.0421,-1.044,-1.0439,-1.0439,-1.0411,0,0,0,0,0,0,-1.0249,-1.0255,-1.0255,-1.0283,-1.029,-1.0307,-1.0326,-1.0331,-1.0341,-1.0344,-1.0371,-1.0375,-1.0394,-1.0407,-1.0411,-1.0408,-1.0422,-1.044,-1.044,-1.0439,-1.0412,-1.041,-1.0407,0,0,0,0,0,-1.0247,-1.0245,-1.0255,-1.0259,-1.0291,-1.0307,-1.0311,-1.0333,-1.0341,-1.0341,-1.036,-1.0375,-1.0406,-1.0408,-1.0412,-1.041,-1.0441,-1.044,-1.0439,-1.0413,-1.041,-1.0407,0,0,0,0,0,0,-1.0216,-1.0249,-1.026,-1.0267,-1.0284,-1.0313,-1.0314,-1.0328,-1.0343,-1.0345,-1.0371,-1.0377,-1.0386,-1.0399,-1.0401,-1.0413,-1.0425,-1.0425,-1.0404,-1.0401,-1.0399,-1.0395,-1.0423,0,0,0,0,0,-1.021,-1.022,-1.0249,-1.0252,-1.026,-1.0286,-1.0294,-1.0309,-1.0327,-1.0335,-1.0354,-1.0372,-1.0386,-1.0394,-1.0409,-1.0415,-1.0422,-1.0416,-1.0413,-1.0411,-1.041,-1.0416,-1.0414,-1.0436,-1.0436,-1.0436,0,0,-1.0197,-1.0217,-1.0222,-1.0247,-1.0262,-1.0272,-1.0291,-1.0302,-1.031,-1.0336,-1.0348,-1.0363,-1.0385,-1.0394,-1.0399,-1.0405,-1.0406,-1.041,-1.0408,-1.0409,-1.0415,-1.0413,-1.0411,-1.0436,-1.0436,-1.0436,0,0,-1.018,-1.0196,-1.0201,-1.0216,-1.0238,-1.0255,-1.0257,-1.0283,-1.0294,-1.0307,-1.0327,-1.0338,-1.0361,-1.0376,-1.0387,-1.0377,-1.0392,-1.0381,-1.0367,-1.0372,-1.037,-1.0369,-1.0366,-1.0365,-1.0381,-1.0381,-1.038,0,-1.0162,-1.0179,-1.0202,-1.0211,-1.0222,-1.0247,-1.0252,-1.0266,-1.0292,-1.0299,-1.0306,-1.0336,-1.0353,-1.0366,-1.0364,-1.0371,-1.0374,-1.0378,-1.0369,-1.0368,-1.0367,-1.0364,-1.0363,-1.0379,-1.0379,-1.0379,-1.038,0,-1.0155,-1.0167,-1.0168,-1.0193,-1.0204,-1.0211,-1.0236,-1.0245,-1.0259,-1.0276,-1.0289,-1.0309,-1.0329,-1.0333,-1.0347,-1.0349,-1.0352,-1.0364,-1.0376,-1.0363,-1.0361,-1.036,-1.0377,-1.0378,-1.0378,-1.0378,0,0,-1.0119,-1.0157,-1.0157,-1.0169,-1.0197,-1.0206,-1.0215,-1.0234,-1.0241,-1.0259,-1.0268,-1.0288,-1.0299,-1.0311,-1.0327,-1.0331,-1.0323,-1.0343,-1.0344,-1.0339,-1.0327,-1.0318,-1.0317,-1.0334,-1.0333,-1.0333,-1.0326,0,-1.0106,-1.0123,-1.0145,-1.0155,-1.0166,-1.0191,-1.0199,-1.0217,-1.0233,-1.0245,-1.0264,-1.0277,-1.0291,-1.0298,-1.0304,-1.0323,-1.0321,-1.0324,-1.0342,-1.0343,-1.0336,-1.0316,-1.0306,-1.0298,-1.0325,-1.0325,-1.0325,0,-1.0093,-1.0109,-1.012,-1.0148,-1.0154,-1.016,-1.018,-1.0192,-1.0213,-1.0225,-1.0239,-1.0257,-1.0269,-1.028,-1.0297,-1.0298,-1.0308,-1.0318,-1.0319,-1.0321,-1.0333,-1.0318,-1.0295,-1.0294,-1.0324,-1.0324,-1.0324,0,-1.0065,-1.009,-1.0101,-1.011,-1.0142,-1.0147,-1.0161,-1.0183,-1.0193,-1.0211,-1.0218,-1.0237,-1.0247,-1.0262,-1.0285,-1.0291,-1.03,-1.0313,-1.031,-1.031,-1.0311,-1.031,-1.0289,-1.0316,-1.0316,-1.0316,-1.0317,0,-1.0048,-1.0054,-1.0089,-1.0095,-1.0103,-1.0128,-1.0136,-1.0152,-1.0171,-1.0182,-1.0205,-1.0214,-1.0244,-1.0257,-1.0275,-1.0287,-1.0291,-1.0301,-1.0306,-1.0299,-1.0298,-1.0305,-1.0306,-1.0316,-1.0316,-1.0316,-1.0316,0,-1.0018,-1.0042,-1.0055,-1.0085,-1.0092,-1.0097,-1.0123,-1.013,-1.0148,-1.0161,-1.0166,-1.0194,-1.0211,-1.0236,-1.026,-1.0272,-1.0281,-1.0289,-1.0274,-1.0277,-1.0273,-1.0273,-1.0256,-1.0256,-1.0283,-1.0282,-1.0282,0,-1.0006,-1.0011,-1.0042,-1.0051,-1.0064,-1.0077,-1.0088,-1.0114,-1.0125,-1.0151,-1.0155,-1.0174,-1.019,-1.0216,-1.0239,-1.0258,-1.0267,-1.026,-1.027,-1.0263,-1.0267,-1.0266,-1.0267,-1.0257,-1.0256,-1.0256,-1.0256,0,-0.9981,-0.9993,-1.0008,-1.0027,-1.004,-1.0056,-1.0074,-1.008,-1.011,-1.0121,-1.0139,-1.0151,-1.0176,-1.0195,-1.0218,-1.0233,-1.0249,-1.0253,-1.0253,-1.0246,-1.0237,-1.0242,-1.0267,-1.0253,-1.0253,-1.0253,-1.0253,-1.0254,-0.996,-0.9966,-0.9989,-1.0005,-1.0022,-1.0038,-1.0047,-1.0066,-1.0081,-1.0104,-1.0118,-1.0135,-1.0158,-1.019,-1.0205,-1.0219,-1.0226,-1.0227,-1.0227,-1.0226,-1.0224,-1.0235,-1.0223,-1.0223,-1.0224,-1.0224,-1.0224,0,-0.9937,-0.9953,-0.9968,-0.9992,-1.0005,-1.002,-1.0041,-1.0051,-1.0066,-1.0086,-1.0101,-1.0122,-1.0141,-1.0166,-1.0187,-1.0193,-1.0202,-1.0198,-1.0198,-1.0201,-1.0217,-1.0214,-1.0191,-1.0191,-1.0191,-1.0191,-1.0191,-1.0191,-0.9926,-0.9938,-0.9953,-0.9973,-0.9989,-1.0006,-1.0017,-1.0032,-1.0048,-1.0071,-1.0086,-1.0103,-1.0125,-1.0148,-1.0166,-1.0173,-1.018,-1.0173,-1.0183,-1.0197,-1.02,-1.0203,-1.0201,-1.0175,-1.0175,-1.0166,-1.0166,-1.0166]}]]